User: anonymous   Login
Location: Unspecified
(0.0000°N, 0.0000°E)
Time: 18:05:46
(UTC+02:00)
Language:

Cosmos 1703 Rocket - Orbit

View from above orbital plane
View from above orbital plane
View from above satellite
View from above satellite

Ground track
Ground track

The orbit data is extracted from the following two-line orbital elements,

1 16263U 85108B   15141.41595880  .00000426  00000-0  49761-4 0  9995
2 16263 082.5031 105.0992 0019329 327.5351 147.0432 14.82758824592089
Epoch (UTC): 21 May 2015 09:58:58
Eccentricity: 0.0019329
inclination: 82.5031°
perigee height: 607 km
apogee height: 634 km
right ascension of ascending node: 105.0992°
argument of perigee: 327.5351°
revolutions per day: 14.82758824
mean anomaly at epoch: 147.0432°
orbit number at epoch: 59208

The dashed part of the orbit path shows where the satellite is in the earth's shadow,  

DLR